RH
32 35 36 38 41 43 39 41 43 43 41 41 43 43 44 46 47 46 45 45 38 36 48 55 62 74 94 99 87 85 64 76 79 73 72 72 81 88 93 86 82 81 84
37 40 42 45 45 41 39 40 46 46 46 47 48 48 48 48 48 49 49 49 49 49 46 39 40 54 56 56 77 82 82 65 63 50 41 38 47 58 70 76 80 79 79
37 41 43 43 43 42 40 42 49 50 50 48 48 48 47 46 44 43 46 48 49 50 51 50 49 46 35 45 56 52 46 46 46 50 50 45 39 32 36 38 47 66 83
41 45 49 51 50 50 51 53 53 48 44 43 43 44 43 44 45 46 48 48 47 45 45 50 52 54 54 47 38 66 75 61 54 55 52 47 46 49 44 40 55 66 79
46 48 51 53 53 53 51 48 48 53 54 49 47 47 47 46 44 42 44 45 46 50 51 54 58 57 61 58 53 53 72 85 86 76 66 61 57 54 52 44 44 50 75
50 53 53 53 54 54 55 54 52 51 53 52 47 43 43 44 43 39 36 44 50 55 60 66 68 65 66 68 59 53 59 76 79 86 89 85 75 73 72 65 52 49 48
54 55 56 57 58 54 55 56 57 62 63 61 56 54 52 49 41 40 37 42 49 56 61 71 78 76 70 70 72 64 70 78 83 92 100 100 95 100 99 92 86 75 71
53 54 58 64 63 60 58 57 61 64 65 64 62 61 55 46 41 44 48 51 52 52 55 72 80 79 77 77 80 77 74 84 89 88 92 96 100 100 100 100 100 99 88
54 54 55 62 64 72 68 66 67 69 72 72 70 66 60 55 51 51 55 62 65 67 68 76 82 81 80 82 85 86 85 90 92 90 91 90 89 92 100 100 100 99 99
56 59 62 62 66 75 76 72 72 77 73 71 71 63 62 62 62 64 69 68 71 80 84 84 84 85 86 90 89 88 88 92 94 90 93 94 94 90 88 96 98 98 98
58 62 65 73 81 85 83 80 83 84 69 70 69 69 70 69 80 82 84 77 71 84 88 90 87 87 89 92 93 92 91 91 96 97 96 95 95 95 95 94 93 94 96
65 76 85 88 90 95 94 90 95 81 65 56 57 66 76 80 88 89 90 81 78 81 83 84 85 87 90 90 93 95 95 94 95 96 96 96 96 95 95 96 96 93 85
83 89 92 92 94 96 96 96 86 71 70 54 57 66 79 90 90 89 87 86 84 83 85 85 86 90 94 94 96 96 94 96 95 96 96 96 95 95 94 95 94 94 94
97 98 96 96 94 94 97 89 63 55 51 50 54 70 79 82 85 89 90 90 89 87 87 89 91 94 95 96 96 96 96 96 95 96 96 96 96 95 95 95 94 79 69
99 97 99 99 99 97 74 57 51 46 47 50 56 65 74 87 95 98 96 94 90 87 90 93 97 99 99 98 96 95 97 96 96 96 96 95 95 95 95 87 61 37 22
95 98 99 97 78 60 59 53 54 49 47 48 50 60 78 89 96 97 95 93 91 91 94 97 100 98 97 99 96 95 97 96 96 96 96 96 96 95 95 75 36 19 15
97 98 94 80 77 77 70 61 53 51 47 46 50 59 74 92 98 99 97 94 91 94 96 96 98 98 97 97 96 95 98 96 96 95 96 94 85 53 33 18 11 10 9
96 96 86 77 78 74 65 58 53 48 48 49 54 68 85 93 97 98 96 94 95 95 94 94 97 97 96 97 96 95 97 93 64 31 21 19 15 12 10 10 11 11 11
96 90 85 72 73 66 58 53 52 50 50 56 68 81 92 96 95 95 96 94 95 94 95 95 96 96 97 97 96 91 53 29 18 14 14 17 18 17 16 14 14 13 13
96 92 78 71 64 59 56 50 47 50 57 67 76 89 94 94 94 94 95 96 95 96 97 97 96 94 86 72 60 29 16 19 21 22 21 19 18 17 17 15 15 14 14
92 90 76 65 61 54 51 52 55 62 70 81 89 94 94 94 96 95 95 95 97 95 83 68 46 25 20 19 21 26 25 25 23 22 21 20 19 19 19 19 19 18 16
93 78 69 64 55 51 53 60 64 72 81 92 95 96 96 97 98 97 91 71 44 31 26 23 21 24 28 29 29 29 27 26 24 24 23 22 21 22 24 23 22 22 20
97 95 78 60 57 60 65 73 77 85 92 97 98 99 98 93 73 48 33 27 22 22 26 30 32 31 31 31 31 31 30 30 29 27 26 25 26 26 26 25 23 22 22
95 90 71 61 68 73 80 87 92 96 99 99 100 91 69 48 36 27 24 24 29 32 33 33 35 37 37 36 36 35 33 32 31 29 28 26 27 27 26 26 26 26 26
71 58 58 66 79 91 99 100 100 100 98 97 86 62 41 31 27 24 30 35 36 36 38 39 38 39 40 42 43 42 39 37 33 30 31 30 28 28 28 29 30 31 32
68 71 80 87 96 100 100 100 100 98 97 94 78 48 34 27 25 34 40 39 42 41 42 43 42 41 45 49 49 47 45 41 34 32 30 30 32 33 34 36 36 38 38
Wind_Speed
6 5 5 6 7 9 11 13 14 14 15 15 15 14 15 15 15 14 12 11 12 13 17 21 24 25 28 30 31 32 40 43 43 45 46 46 45 45 42 39 35 36 40
3 3 4 5 7 10 14 15 14 15 14 13 13 14 14 15 16 17 18 18 18 16 16 18 20 25 31 35 40 41 41 41 42 44 47 49 49 48 45 44 42 41 37
2 1 3 7 10 12 13 15 15 15 15 14 14 14 14 15 15 16 18 19 20 22 24 23 23 24 24 26 32 37 39 39 40 41 41 41 43 47 47 45 43 38 37
4 3 5 8 11 13 14 15 15 14 15 16 17 16 15 16 17 18 19 20 21 22 24 25 25 24 25 27 26 27 31 36 36 38 40 40 42 40 41 38 35 36 38
9 7 7 10 13 16 17 17 16 16 17 17 16 17 19 21 24 25 25 25 26 26 27 27 26 26 25 23 25 23 22 27 31 33 37 39 40 41 42 41 40 40 40
11 10 11 14 18 18 16 17 17 17 18 19 20 21 22 25 26 28 30 31 30 31 31 31 29 28 26 25 25 25 24 22 21 24 28 30 36 39 39 41 41 40 43
13 13 13 16 20 20 19 20 20 20 22 23 24 26 28 29 29 30 32 32 32 32 32 32 32 31 30 28 26 24 22 20 19 20 22 24 25 28 31 34 36 38 44
16 17 14 14 18 21 23 23 23 24 26 25 27 29 31 32 33 33 33 33 33 34 35 34 33 33 32 30 29 27 25 24 24 21 19 20 25 26 27 27 25 28 33
17 18 22 21 25 27 25 25 24 26 29 29 31 32 33 35 37 37 37 36 35 35 35 34 34 34 34 33 31 32 33 34 32 31 31 29 28 26 27 27 26 23 23
24 26 25 29 35 38 28 24 25 28 30 32 33 34 36 37 38 39 39 39 39 38 36 35 35 34 34 33 33 34 35 37 37 34 32 32 31 29 27 27 28 26 27
25 26 29 37 38 29 26 25 28 29 32 35 36 37 38 41 40 40 41 41 39 37 36 35 34 34 34 34 34 33 33 33 33 32 31 30 29 30 28 24 24 25 26
25 35 36 33 31 27 26 28 31 31 34 35 38 39 40 42 41 42 41 40 38 36 36 35 34 33 32 33 33 31 29 29 30 32 30 28 26 25 23 23 22 21 22
38 39 35 32 29 26 29 33 32 32 34 36 38 38 40 41 42 41 39 38 38 37 35 34 33 32 31 31 30 29 28 27 28 29 28 26 25 23 21 20 21 21 22
41 35 32 29 27 29 30 29 29 31 34 37 38 39 39 40 40 40 39 38 37 36 33 31 30 30 29 28 28 26 26 27 26 25 25 23 22 20 20 19 20 22 24
31 31 28 28 29 30 30 31 33 35 36 36 37 38 40 39 40 40 39 37 34 32 29 27 26 26 25 25 25 25 24 24 24 23 22 22 20 18 18 20 22 24 25
31 29 27 28 27 30 34 35 35 34 34 36 37 38 39 40 39 37 34 31 29 27 25 24 23 23 24 23 24 25 23 23 22 20 18 18 18 20 21 23 25 25 27
24 26 25 27 33 37 36 34 33 35 36 37 38 39 39 37 35 31 28 27 25 23 22 22 22 22 23 23 24 25 22 21 19 19 18 19 20 22 24 25 24 24 26
24 24 29 34 34 33 32 33 34 36 38 39 38 37 35 33 29 27 26 24 23 22 22 22 22 23 23 24 24 24 20 18 19 20 20 20 21 22 24 23 22 23 25
25 29 32 32 30 31 32 34 36 37 38 37 36 33 30 28 26 25 24 23 22 22 22 22 23 24 24 23 21 20 19 20 20 19 18 17 17 17 19 19 19 20 22
29 29 30 30 29 31 34 36 37 37 38 36 33 30 28 26 25 24 24 23 24 23 24 24 23 22 21 20 20 21 19 18 16 15 14 14 14 15 17 19 19 20 22
31 31 29 29 30 33 36 37 37 36 35 32 29 27 26 25 24 24 25 25 25 23 23 22 22 21 21 20 19 18 15 14 13 13 13 14 15 16 17 20 20 23 23
32 29 29 31 34 36 38 38 37 35 32 29 27 26 26 25 26 25 25 24 24 25 24 23 23 21 19 17 16 15 14 14 13 13 14 16 17 17 18 19 21 22 25
30 30 32 35 37 38 38 37 36 33 30 28 27 27 26 26 26 26 26 26 25 25 23 21 20 19 17 16 15 15 14 14 15 16 16 16 16 17 18 19 21 22 23
31 34 37 39 38 38 37 35 33 31 29 28 28 28 27 28 28 28 27 25 24 22 21 20 18 17 17 17 16 16 16 15 15 16 17 17 16 17 18 19 20 21 22
36 39 41 42 40 37 34 33 32 30 29 29 29 29 29 30 29 27 25 24 22 21 21 20 19 18 17 17 17 17 17 17 17 17 16 16 16 16 17 18 19 21 22
39 40 40 40 38 35 32 31 32 31 30 29 30 31 31 30 29 27 24 24 22 22 21 21 21 19 18 18 18 18 19 19 18 16 15 14 15 16 17 18 19 21 22
Wind_Direction
263 281 296 311 315 318 314 318 321 324 328 331 333 334 334 337 341 344 341 327 321 312 300 290 274 267 260 267 272 268 261 259 258 257 256 257 257 258 262 264 266 260 264
246 288 304 301 305 314 330 327 323 323 325 325 327 329 329 329 332 334 333 333 328 319 304 293 288 278 272 268 263 264 267 267 265 263 262 259 257 256 257 260 262 262 263
219 326 329 326 325 322 321 322 322 324 326 326 325 324 324 324 325 326 325 322 319 316 315 310 300 291 286 281 275 269 265 263 264 262 262 261 260 259 257 257 258 258 254
248 301 346 339 332 321 323 327 327 327 328 327 323 322 320 319 318 316 313 312 312 310 307 304 301 297 291 286 285 280 273 265 260 261 262 260 260 258 259 255 250 247 246
253 273 298 327 336 325 320 325 323 318 316 316 315 316 316 317 317 315 312 312 309 306 303 301 299 300 299 296 290 288 282 274 270 261 258 258 257 257 258 256 249 245 241
258 276 295 317 327 325 309 310 314 316 316 315 314 314 313 312 311 311 312 310 309 308 305 303 302 296 294 294 291 290 289 287 281 272 264 260 254 253 254 254 253 252 251
258 272 292 315 323 318 307 307 307 309 315 317 315 313 311 307 305 304 305 304 305 305 303 300 299 298 293 290 289 288 284 282 284 283 277 275 265 251 250 252 251 250 254
259 268 283 318 326 319 305 302 300 301 309 309 310 308 306 304 302 301 299 299 299 300 299 297 293 293 291 286 283 281 276 277 280 273 273 278 270 270 266 261 258 248 248
269 279 280 289 310 322 305 293 292 297 302 302 303 302 300 299 297 296 295 296 296 295 293 291 291 290 286 282 277 274 272 274 277 273 270 271 270 268 262 263 263 260 252
276 290 290 289 301 309 297 283 286 290 297 299 298 296 294 294 293 293 294 296 296 293 292 291 291 290 286 282 277 275 274 276 277 274 271 267 261 259 261 260 253 249 247
283 292 293 298 300 300 292 277 281 293 298 297 296 293 292 291 292 293 295 296 295 292 291 292 292 291 287 283 279 277 276 277 279 273 267 260 258 254 250 254 261 261 250
280 295 299 300 302 300 281 276 285 295 298 299 294 290 289 290 292 293 295 295 294 293 291 291 290 288 284 282 279 277 275 276 279 274 265 255 251 250 252 257 256 260 267
290 300 301 297 293 285 281 286 291 295 298 292 290 288 287 288 291 294 295 295 295 294 291 288 286 285 284 280 276 274 273 272 271 269 266 264 260 255 256 262 267 271 268
293 294 290 288 284 281 289 302 300 297 290 288 287 286 288 291 292 294 295 296 296 294 290 286 284 283 281 278 275 274 274 273 269 264 261 259 257 257 260 265 270 271 270
283 287 285 287 290 298 305 303 298 291 289 290 290 291 292 293 293 295 297 297 295 291 288 286 283 281 279 276 274 272 272 270 269 268 267 267 267 268 272 274 273 272 272
283 280 283 290 303 306 305 297 293 294 294 294 294 293 292 292 294 295 296 294 292 290 288 286 283 281 279 278 276 274 273 272 272 272 273 275 279 280 278 278 278 279 278
270 274 289 299 304 305 298 295 297 298 299 298 296 295 293 293 294 294 292 291 289 287 286 285 284 283 281 282 280 276 275 278 281 284 286 285 284 281 279 278 280 281 280
279 294 300 303 299 297 297 298 300 300 300 298 296 294 292 293 293 292 291 290 290 289 287 286 286 285 283 281 280 279 281 282 282 280 276 274 274 275 277 279 280 280 282
303 304 303 300 298 299 301 302 301 301 299 297 294 292 292 292 291 291 291 291 292 290 288 287 285 284 282 280 280 283 283 280 277 276 275 273 271 273 276 280 281 283 283
310 305 297 294 298 302 303 303 303 303 299 296 294 292 291 291 291 291 291 292 291 291 290 287 283 281 279 282 280 278 276 274 272 269 269 270 272 275 280 284 287 286 285
301 294 294 298 303 305 305 303 302 300 297 294 292 291 290 290 291 290 290 290 289 288 285 284 283 281 278 276 275 275 272 266 267 270 274 278 282 287 292 295 297 294 297
293 292 297 301 303 303 303 302 300 298 294 292 290 290 290 291 291 290 288 287 287 285 284 283 282 279 275 270 268 268 271 274 277 279 282 286 291 294 293 291 292 294 298
291 297 303 303 302 302 302 299 297 294 292 290 290 290 290 290 290 289 288 287 286 284 283 281 277 274 269 267 265 266 270 275 279 279 283 286 287 286 287 290 292 294 295
310 308 303 300 300 300 298 296 294 291 290 290 290 291 291 290 290 288 287 285 283 281 278 275 270 266 266 268 270 270 271 272 277 281 288 288 285 284 284 284 287 290 293
307 305 303 301 298 296 295 294 292 291 290 291 291 291 290 290 290 287 284 281 278 276 273 270 266 264 263 264 268 273 277 278 278 282 276 273 276 281 287 292 295 296 296
301 300 299 298 297 296 295 292 290 290 290 291 291 291 290 290 287 284 281 277 274 273 268 264 263 261 261 261 263 265 266 268 273 271 273 279 283 288 292 295 296 296 296